Weather Roundup
Issued by NWS

Home | Current Version | Previous Version | Text Only | Print | Product List | Glossary On
Versions: 1 2 3 4 5 6 7 8 9 10 11 12 13 14 15 16 17 18 19 20 21 22 23 24 25 26 27 28 29 30 31 32 33 34 35 36 37 38 39 40 41 42 43 44 45 46 47 48 49 50
582
NZUS93 KARX 201159
HRRWXR

CURRENT HOURLY OBSERVATIONS ACROSS
MUCH OF THE UPPER MISSISSIPPI VALLEY
NATIONAL WEATHER SERVICE LA CROSSE WI
600 AM CST FRI JAN 20 2017


...SOUTHEAST MINNESOTA...


CITY           SKY/WX    TMP DP  RH WIND       PRES   REMARKS
ROCHESTER      CLOUDY    33  33 100 SE8       29.62S FOG     WCI  26
ROCHESTER/MAYO CLOUDY    34  34 100 E7        29.63R WCI  28
WINONA         CLOUDY    34  34 100 CALM      29.66S FOG
AUSTIN         FOG       34  32  93 CALM      29.61S VSB 1
ALBERT LEA     FOG       34  34 100 S6        29.60S VSB 1   WCI  29
DODGE CENTER   CLOUDY    34  34 100 CALM      29.61S FOG
PRESTON        CLOUDY    33  32  96 SE7       29.63S FOG     WCI  27
OWATONNA       CLOUDY    36  34  93 SE7       29.61S FOG     WCI  30
FARIBAULT      DRIZZLE   34  34 100 SE3       29.61F
$$

...ELSEWHERE IN MINNESOTA...


CITY           SKY/WX    TMP DP  RH WIND       PRES   REMARKS
MINNEAPOLIS    CLOUDY    35  33  92 SE7       29.63S FOG     WCI  29
INTNL FALLS    CLOUDY    32  31  96 SE3       29.62S FOG
DULUTH         CLOUDY    34  32  92 SE8       29.64R WCI  27
RED WING       CLOUDY    36  34  93 SE6       29.63S FOG     WCI  31
REDWOOD FALLS  CLOUDY    34  32  92 SE7       29.58F FOG     WCI  28
MANKATO        CLOUDY    34  33  96 S9        29.60F FOG     WCI  27
WORTHINGTON    FOG       34  33  96 E6          N/A  VSB 1/2 WCI  29
FAIRMONT       CLOUDY    33  33 100 SE8       29.60S FOG     WCI  26
$$

...SOUTHWEST WISCONSIN...


CITY           SKY/WX    TMP DP  RH WIND       PRES   REMARKS
LA CROSSE      FOG       36  34  92 CALM      29.65F VSB 1
PRAIRIE DU CHI FOG       34  33  97 CALM      29.65S VSB 3/4
BOSCOBEL       CLOUDY    36  35  96 CALM      29.66S FOG
LONE ROCK      NOT AVBL
PLATTEVILLE    CLOUDY    35  35 100 E8        29.64S WCI  29
FORT MC COY    CLOUDY    33  33 100 E5        29.67S FOG     WCI  29
CAMP DOUGLAS   CLOUDY    34  32  93 E3        29.66S FOG
MAUSTON-NEW LI LGT RAIN  34  34  99 CALM      29.66S
VIROQUA        CLOUDY    34  34 100 E6        29.63S VSB 1/2 WCI  29
WIS DELLS      FOG       33  33  99 NE5       29.65S VSB 1   WCI  29
$$

...ELSEWHERE IN WISCONSIN...


CITY           SKY/WX    TMP DP  RH WIND       PRES   REMARKS
MILWAUKEE      LGT RAIN  38  37  97 E8        29.67S FOG     WCI  32
MADISON        DRIZZLE   35  34  96 NE5       29.66S WCI  31
GREEN BAY      LGT RAIN  34  34 100 NE7       29.71S FOG     WCI  28
EAU CLAIRE     LGT RAIN  35  35 100 E5        29.65S FOG     WCI  31
BLACK RVR FLS  CLOUDY    36  36 100 E5        29.66R FOG     WCI  32
MEDFORD        DRIZZLE   32  32  99 E6        29.66S WCI  26
WAUSAU         FRZ RAIN  32  31  96 E5        29.67F FOG     WCI  27
WIS RAPIDS     LGT RAIN  33  33 100 E5        29.69R FOG     WCI  29
MARSHFIELD     CLOUDY    33  31  92 E8        29.66S FOG     WCI  26
RICE LAKE      CLOUDY    35  34  98 E3        29.67S FOG
$$

...NORTHEAST IOWA...


CITY           SKY/WX    TMP DP  RH WIND       PRES   REMARKS
WATERLOO       FOG       34  33  96 CALM      29.62S VSB 1/2
DUBUQUE        FOG       34  34 100 NE6       29.62F VSB 1/2 WCI  29
DECORAH        MIX PCPN  34  34 100 E7        29.62S WCI  28
MASON CITY     FOG       33  33 100 SE3       29.61F VSB 1/2
CHARLES CITY   FOG       34  34 100 E5        29.62S VSB 3/4 WCI  30
OELWEIN        CLOUDY    34  34 100 E6        29.62S FOG     WCI  29
$$

...ELSEWHERE IN IOWA...


CITY           SKY/WX    TMP DP  RH WIND       PRES   REMARKS
DES MOINES     FOG       37  37 100 NE5       29.60S VSB 1/4 WCI  33
IOWA CITY      CLOUDY    37  36  96 NE3       29.62F FOG
FORT DODGE     CLOUDY    34  30  86 E6        29.60F WCI  29
MARSHALLTOWN   FOG       35  34  96 E5        29.60S VSB 1/2 WCI  31
CEDAR RAPIDS   FOG       35  35 100 E7        29.60  VSB 1/2 WCI  29
$$

...NORTHERN ILLINOIS...


CITY           SKY/WX    TMP DP  RH WIND       PRES   REMARKS
CHICAGO-OHARE  LGT RAIN  38  37  97 NE9       29.62F FOG     WCI  31
CHICAGO-MIDWAY LGT RAIN  37  37 100 NE10      29.62F FOG     WCI  30
MOLINE         FOG       37  36  96 NE3       29.61S VSB 3/4
ROCKFORD       DRIZZLE   38  36  92 E6        29.64F FOG     WCI  33
PEORIA         FOG       38  38 100 E5        29.61S VSB 1/2 WCI  34
$$

NOTE: "FAIR" INDICATES FEW OR NO CLOUDS BELOW 12,000 FEET WITH NO
SIGNIFICANT WEATHER AND/OR OBSTRUCTIONS TO VISIBILITY. WIND
SPEEDS ARE IN MILES-PER-HOUR.




USA.gov is the U.S. government's official web portal to all federal, state and local government web resources and services.